| time (UTC) | temp F | wind direction | speed knots | gust knots | rain 1hr in | rain 24hr in | rain mn in | humidity % | barometer mb |
| 20260506231342 | 49 | 97 | 1.7 | 2.6 | 0.00 | 0.26 | 0.26 | 89 | 1040.9 |
| 20260506230839 | 49 | 18 | 2.6 | 5.2 | 0.00 | 0.26 | 0.26 | 88 | 1040.6 |
| 20260506230336 | 49 | 305 | 0.0 | 0.9 | 0.00 | 0.26 | 0.26 | 89 | 1040.8 |
| 20260506225832 | 49 | 322 | 0.9 | 1.7 | 0.00 | 0.26 | 0.26 | 89 | 1040.5 |
| 20260506225329 | 49 | 277 | 0.9 | 6.1 | 0.00 | 0.26 | 0.26 | 90 | 1040.3 |
| 20260506224826 | 49 | 358 | 1.7 | 1.7 | 0.00 | 0.26 | 0.26 | 91 | 1040.3 |
| 20260506224323 | 49 | 84 | 2.6 | 2.6 | 0.00 | 0.26 | 0.26 | 91 | 1040.1 |
| 20260506223820 | 49 | 267 | 3.5 | 5.2 | 0.00 | 0.26 | 0.26 | 91 | 1040.3 |
| 20260506223315 | 49 | 257 | 2.6 | 2.6 | 0.00 | 0.26 | 0.26 | 91 | 1039.9 |
| 20260506222813 | 50 | 160 | 3.5 | 7.0 | 0.00 | 0.26 | 0.26 | 91 | 1039.7 |
| 20260506222308 | 50 | 284 | 1.7 | 3.5 | 0.00 | 0.26 | 0.26 | 90 | 1039.6 |
| 20260506221806 | 50 | 213 | 1.7 | 1.7 | 0.00 | 0.26 | 0.26 | 90 | 1039.6 |
| 20260506221303 | 50 | 331 | 4.3 | 5.2 | 0.00 | 0.26 | 0.26 | 90 | 1039.3 |
| 20260506220801 | 50 | 354 | 2.6 | 7.0 | 0.00 | 0.26 | 0.26 | 90 | 1039.3 |
| 20260506220255 | 50 | 301 | 9.6 | 21.7 | 0.00 | 0.26 | 0.26 | 90 | 1039.3 |
| 20260506215752 | 50 | 241 | 5.2 | 9.6 | 0.02 | 0.26 | 0.26 | 92 | 1038.8 |
| 20260506215248 | 51 | 321 | 5.2 | 13.0 | 0.02 | 0.26 | 0.26 | 92 | 1038.7 |
| 20260506214744 | 51 | 286 | 5.2 | 14.8 | 0.00 | 0.26 | 0.26 | 92 | 1038.5 |
| 20260506214241 | 51 | 269 | 13.0 | 16.5 | 0.02 | 0.26 | 0.26 | 93 | 1038.1 |
| 20260506213740 | 51 | 279 | 13.0 | 16.5 | 0.02 | 0.26 | 0.26 | 93 | 1037.9 |
| 20260506213232 | 52 | 318 | 13.0 | 15.6 | 0.00 | 0.25 | 0.25 | 92 | 1037.9 |
| 20260506212729 | 53 | 308 | 13.0 | 14.8 | 0.00 | 0.25 | 0.25 | 92 | 1037.9 |
| 20260506212224 | 53 | 275 | 11.3 | 16.5 | 0.00 | 0.25 | 0.25 | 91 | 1037.3 |
| 20260506211719 | 53 | 294 | 10.4 | 18.2 | 0.00 | 0.25 | 0.25 | 91 | 1037.5 |
| 20260506211216 | 53 | 285 | 9.6 | 13.9 | 0.00 | 0.25 | 0.25 | 91 | 1037.3 |
| 20260506210713 | 53 | 283 | 10.4 | 13.9 | 0.00 | 0.25 | 0.25 | 91 | 1037.0 |
| 20260506210210 | 54 | 310 | 10.4 | 13.9 | 0.00 | 0.25 | 0.25 | 91 | 1037.3 |
| 20260506205707 | 54 | 271 | 10.4 | 16.5 | 0.00 | 0.25 | 0.25 | 92 | 1037.2 |
| 20260506205202 | 55 | 296 | 8.7 | 13.9 | 0.07 | 0.25 | 0.25 | 92 | 1037.0 |
| 20260506204700 | 58 | 242 | 8.7 | 16.5 | 0.07 | 0.25 | 0.25 | 92 | 1037.1 |
| 20260506204156 | 60 | 238 | 5.2 | 8.7 | 0.00 | 0.24 | 0.24 | 93 | 1036.7 |
| 20260506203655 | 60 | 242 | 1.7 | 6.1 | 0.00 | 0.24 | 0.24 | 93 | 1036.7 |
| 20260506203152 | 60 | 207 | 4.3 | 7.0 | 0.00 | 0.24 | 0.24 | 93 | 1036.6 |
| 20260506202650 | 60 | 183 | 3.5 | 8.7 | 0.00 | 0.24 | 0.24 | 94 | 1036.7 |
| 20260506202145 | 60 | 227 | 5.2 | 7.0 | 0.00 | 0.24 | 0.24 | 94 | 1036.9 |
| 20260506201643 | 60 | 248 | 5.2 | 7.0 | 0.00 | 0.24 | 0.24 | 93 | 1037.0 |
| 20260506201139 | 60 | 257 | 2.6 | 7.8 | 0.00 | 0.24 | 0.24 | 94 | 1036.8 |
| 20260506200636 | 60 | 257 | 2.6 | 9.6 | 0.00 | 0.24 | 0.24 | 94 | 1036.9 |
| 20260506200133 | 60 | 256 | 4.3 | 6.1 | 0.00 | 0.24 | 0.24 | 94 | 1036.9 |
| 20260506195629 | 59 | 180 | 7.8 | 9.6 | 0.00 | 0.24 | 0.24 | 94 | 1037.2 |
| 20260506195125 | 59 | 256 | 7.8 | 14.8 | 0.00 | 0.24 | 0.24 | 94 | 1037.1 |
| 20260506194623 | 59 | 192 | 7.8 | 12.2 | 0.00 | 0.24 | 0.24 | 95 | 1037.1 |
| 20260506194119 | 59 | 234 | 7.8 | 9.6 | 0.00 | 0.24 | 0.24 | 95 | 1037.2 |
| 20260506193617 | 59 | 256 | 3.5 | 6.1 | 0.00 | 0.24 | 0.24 | 95 | 1037.2 |
| 20260506193114 | 59 | 237 | 5.2 | 8.7 | 0.00 | 0.24 | 0.24 | 95 | 1037.0 |
| 20260506192610 | 59 | 256 | 5.2 | 7.8 | 0.00 | 0.24 | 0.24 | 95 | 1037.1 |
| 20260506192101 | 59 | 244 | 2.6 | 8.7 | 0.00 | 0.24 | 0.24 | 95 | 1037.2 |
| 20260506191557 | 59 | 222 | 3.5 | 5.2 | 0.00 | 0.24 | 0.24 | 95 | 1037.4 |
| 20260506191053 | 59 | 228 | 3.5 | 5.2 | 0.00 | 0.24 | 0.24 | 95 | 1037.1 |
| 20260506190551 | 59 | 188 | 7.8 | 12.2 | 0.00 | 0.24 | 0.24 | 95 | 1037.4 |
| 20260506190047 | 59 | 242 | 3.5 | 7.0 | 0.00 | 0.24 | 0.24 | 95 | 1037.4 |
| 20260506185544 | 59 | 261 | 2.6 | 6.1 | 0.00 | 0.24 | 0.24 | 95 | 1037.4 |
| 20260506185036 | 59 | 262 | 1.7 | 5.2 | 0.00 | 0.24 | 0.24 | 95 | 1037.3 |
| 20260506184533 | 59 | 212 | 5.2 | 11.3 | 0.00 | 0.24 | 0.24 | 95 | 1037.7 |
| 20260506184030 | 59 | 249 | 3.5 | 6.1 | 0.00 | 0.24 | 0.24 | 95 | 1037.7 |
| 20260506183525 | 59 | 232 | 3.5 | 7.8 | 0.00 | 0.24 | 0.24 | 95 | 1037.7 |
| 20260506183023 | 58 | 229 | 3.5 | 8.7 | 0.00 | 0.24 | 0.24 | 95 | 1037.7 |
| 20260506182520 | 58 | 226 | 7.0 | 11.3 | 0.00 | 0.24 | 0.24 | 95 | 1037.8 |
| 20260506182017 | 58 | 232 | 7.0 | 8.7 | 0.00 | 0.24 | 0.24 | 95 | 1037.8 |
| 20260506181515 | 58 | 214 | 6.1 | 7.8 | 0.00 | 0.24 | 0.24 | 95 | 1038.0 |
| 20260506181012 | 58 | 273 | 4.3 | 8.7 | 0.00 | 0.24 | 0.24 | 95 | 1037.8 |
| 20260506180508 | 58 | 225 | 6.1 | 11.3 | 0.00 | 0.24 | 0.24 | 95 | 1037.5 |
| 20260506180006 | 58 | 249 | 5.2 | 7.0 | 0.00 | 0.24 | 0.24 | 95 | 1037.7 |
| 20260506175502 | 59 | 257 | 3.5 | 6.1 | 0.00 | 0.24 | 0.24 | 95 | 1037.8 |
| 20260506174958 | 59 | 251 | 2.6 | 3.5 | 0.00 | 0.24 | 0.24 | 95 | 1037.5 |
| 20260506174456 | 58 | 244 | 2.6 | 7.0 | 0.00 | 0.24 | 0.24 | 95 | 1037.7 |
| 20260506173946 | 59 | 257 | 3.5 | 5.2 | 0.00 | 0.24 | 0.24 | 95 | 1037.5 |
| 20260506173443 | 59 | 235 | 2.6 | 7.0 | 0.05 | 0.24 | 0.24 | 95 | 1037.5 |
| 20260506172935 | 59 | 225 | 3.5 | 7.0 | 0.05 | 0.24 | 0.24 | 95 | 1037.8 |
| 20260506172432 | 58 | 258 | 4.3 | 7.0 | 0.00 | 0.23 | 0.23 | 95 | 1037.7 |
| 20260506171928 | 58 | 247 | 4.3 | 5.2 | 0.07 | 0.23 | 0.23 | 95 | 1037.8 |
| 20260506171426 | 58 | 233 | 1.7 | 5.2 | 0.07 | 0.23 | 0.23 | 95 | 1037.8 |
| 20260506170923 | 58 | 255 | 2.6 | 6.1 | 0.05 | 0.22 | 0.22 | 95 | 1037.9 |
| 20260506170419 | 58 | 258 | 1.7 | 7.0 | 0.07 | 0.21 | 0.21 | 95 | 1037.9 |
| 20260506165913 | 59 | 243 | 3.5 | 7.0 | 0.12 | 0.21 | 0.21 | 95 | 1037.8 |
| 20260506165411 | 58 | 265 | 3.5 | 6.1 | 0.12 | 0.20 | 0.20 | 95 | 1037.9 |
| 20260506164906 | 58 | 245 | 3.5 | 6.1 | 0.07 | 0.19 | 0.19 | 95 | 1037.9 |
| 20260506164402 | 58 | 246 | 2.6 | 3.5 | 0.05 | 0.18 | 0.18 | 95 | 1037.9 |
| 20260506163901 | 59 | 251 | 1.7 | 3.5 | 0.05 | 0.18 | 0.18 | 95 | 1038.0 |
| 20260506163356 | 59 | 269 | 1.7 | 3.5 | 0.00 | 0.17 | 0.17 | 95 | 1037.8 |
| 20260506162851 | 59 | 263 | 1.7 | 5.2 | 0.00 | 0.17 | 0.17 | 95 | 1037.9 |
| 20260506162349 | 59 | 242 | 1.7 | 3.5 | 0.00 | 0.17 | 0.17 | 95 | 1037.9 |
| 20260506161841 | 59 | 236 | 2.6 | 5.2 | 0.00 | 0.17 | 0.17 | 95 | 1037.9 |
| 20260506161338 | 59 | 258 | 2.6 | 5.2 | 0.00 | 0.17 | 0.17 | 95 | 1037.8 |
| 20260506160835 | 59 | 240 | 1.7 | 2.6 | 0.07 | 0.17 | 0.17 | 95 | 1037.9 |
| 20260506160332 | 59 | 250 | 1.7 | 3.5 | 0.14 | 0.17 | 0.17 | 95 | 1037.9 |
| 20260506155830 | 59 | 235 | 1.7 | 6.1 | 0.12 | 0.16 | 0.16 | 95 | 1038.2 |
| 20260506155326 | 59 | 238 | 3.5 | 5.2 | 0.12 | 0.15 | 0.15 | 95 | 1038.2 |
| 20260506153439 | 59 | 224 | 2.6 | 6.1 | 0.12 | 0.11 | 0.11 | 94 | 1038.2 |
| 20260506152937 | 59 | 246 | 4.3 | 6.1 | 0.12 | 0.10 | 0.10 | 94 | 1038.4 |
| 20260506152433 | 59 | 224 | 3.5 | 6.1 | 0.05 | 0.09 | 0.09 | 94 | 1038.3 |
| 20260506151932 | 59 | 229 | 4.3 | 6.1 | 0.00 | 0.08 | 0.08 | 94 | 1038.1 |
| 20260506151428 | 59 | 212 | 5.2 | 6.1 | 0.07 | 0.08 | 0.08 | 94 | 1038.3 |
| 20260506150921 | 59 | 251 | 2.6 | 2.6 | 0.07 | 0.08 | 0.08 | 94 | 1038.2 |
| 20260506150416 | 59 | 220 | 2.6 | 2.6 | 0.05 | 0.07 | 0.07 | 94 | 1038.2 |
| 20260506145914 | 59 | 231 | 1.7 | 3.5 | 0.05 | 0.07 | 0.07 | 94 | 1038.0 |
| 20260506145409 | 59 | 232 | 0.9 | 1.7 | 0.00 | 0.06 | 0.06 | 94 | 1038.0 |
| 20260506144907 | 59 | 248 | 2.6 | 2.6 | 0.07 | 0.06 | 0.06 | 93 | 1038.0 |
| 20260506144403 | 59 | 251 | 2.6 | 2.6 | 0.07 | 0.06 | 0.06 | 93 | 1038.2 |
| 20260506143902 | 59 | 239 | 1.7 | 3.5 | 0.00 | 0.05 | 0.05 | 93 | 1038.2 |
| 20260506143359 | 59 | 259 | 1.7 | 3.5 | 0.00 | 0.05 | 0.05 | 94 | 1038.1 |
| 20260506142857 | 59 | 247 | 0.9 | 2.6 | 0.05 | 0.05 | 0.05 | 94 | 1038.3 |
| 20260506142355 | 59 | 258 | 0.9 | 1.7 | 0.05 | 0.05 | 0.05 | 94 | 1038.0 |
| 20260506141853 | 59 | 245 | 0.9 | 2.6 | 0.07 | 0.04 | 0.04 | 94 | 1038.2 |
| 20260506141350 | 58 | 252 | 0.9 | 0.9 | 0.07 | 0.04 | 0.04 | 94 | 1038.4 |
| 20260506140848 | 59 | 259 | 0.0 | 0.0 | 0.00 | 0.03 | 0.03 | 94 | 1038.3 |
| 20260506140345 | 58 | 263 | 0.9 | 3.5 | 0.00 | 0.03 | 0.03 | 93 | 1038.6 |
| 20260506135842 | 58 | 261 | 1.7 | 2.6 | 0.00 | 0.03 | 0.03 | 93 | 1038.7 |
| 20260506135339 | 59 | 243 | 0.9 | 3.5 | 0.00 | 0.03 | 0.03 | 93 | 1038.8 |
| 20260506134835 | 59 | 260 | 1.7 | 5.2 | 0.00 | 0.03 | 0.03 | 92 | 1038.5 |
| 20260506134331 | 59 | 261 | 0.0 | 0.9 | 0.00 | 0.03 | 0.03 | 92 | 1038.8 |
| 20260506133829 | 59 | 222 | 1.7 | 1.7 | 0.00 | 0.03 | 0.03 | 91 | 1039.0 |
| 20260506133325 | 59 | 228 | 2.6 | 2.6 | 0.00 | 0.03 | 0.03 | 91 | 1039.0 |
| 20260506132822 | 59 | 230 | 1.7 | 2.6 | 0.00 | 0.03 | 0.03 | 90 | 1039.0 |
| 20260506132319 | 59 | 249 | 0.9 | 2.6 | 0.00 | 0.03 | 0.03 | 89 | 1039.0 |
| 20260506131817 | 59 | 211 | 3.5 | 5.2 | 0.00 | 0.03 | 0.03 | 88 | 1039.1 |
| 20260506131313 | 60 | 256 | 1.7 | 3.5 | 0.09 | 0.03 | 0.03 | 87 | 1039.2 |
| 20260506130810 | 60 | 226 | 3.5 | 7.8 | 0.09 | 0.03 | 0.03 | 86 | 1039.2 |
| 20260506130307 | 60 | 237 | 2.6 | 7.0 | 0.00 | 0.02 | 0.02 | 86 | 1039.3 |
| 20260506125805 | 60 | 229 | 1.7 | 7.0 | 0.05 | 0.02 | 0.02 | 84 | 1039.3 |
| 20260506125305 | 60 | 187 | 5.2 | 7.8 | 0.05 | 0.02 | 0.02 | 83 | 1039.0 |
| 20260506124801 | 61 | 203 | 3.5 | 7.8 | 0.00 | 0.01 | 0.01 | 82 | 1038.9 |
| 20260506124258 | 61 | 216 | 2.6 | 8.7 | 0.05 | 0.01 | 0.01 | 79 | 1038.7 |
| 20260506123755 | 62 | 70 | 2.6 | 7.0 | 0.05 | 0.01 | 0.01 | 78 | 1038.5 |
| 20260506123254 | 62 | 222 | 3.5 | 6.1 | 0.00 | 0.00 | 0.00 | 76 | 1038.3 |
| 20260506122750 | 62 | 249 | 1.7 | 5.2 | 0.00 | 0.00 | 0.00 | 74 | 1038.2 |
| 20260506122247 | 63 | 262 | 2.6 | 7.8 | 0.00 | 0.00 | 0.00 | 72 | 1038.2 |
| 20260506121745 | 63 | 199 | 1.7 | 7.0 | 0.00 | 0.00 | 0.00 | 70 | 1038.5 |
| 20260506121242 | 63 | 210 | 1.7 | 5.2 | 0.00 | 0.00 | 0.00 | 68 | 1038.5 |
| 20260506120739 | 62 | 241 | 2.6 | 5.2 | 0.00 | 0.00 | 0.00 | 67 | 1038.4 |
| 20260506120237 | 63 | 256 | 0.9 | 1.7 | 0.00 | 0.00 | 0.00 | 67 | 1038.8 |
| 20260506115735 | 62 | 239 | 1.7 | 2.6 | 0.00 | 0.00 | 0.00 | 66 | 1038.8 |
| 20260506115233 | 63 | 254 | 0.9 | 2.6 | 0.00 | 0.00 | 0.00 | 65 | 1038.6 |
| 20260506114730 | 63 | 254 | 0.9 | 2.6 | 0.00 | 0.00 | 0.00 | 65 | 1038.5 |
| 20260506114227 | 63 | 254 | 0.9 | 1.7 | 0.00 | 0.00 | 0.00 | 64 | 1038.4 |
| 20260506113726 | 63 | 245 | 0.9 | 3.5 | 0.00 | 0.00 | 0.00 | 64 | 1038.6 |
| 20260506113223 | 63 | 250 | 0.9 | 3.5 | 0.00 | 0.00 | 0.00 | 64 | 1038.6 |
| 20260506112719 | 63 | 240 | 0.9 | 1.7 | 0.00 | 0.00 | 0.00 | 65 | 1038.5 |
| 20260506112217 | 63 | 255 | 1.7 | 2.6 | 0.00 | 0.00 | 0.00 | 64 | 1038.6 |
| 20260506111714 | 63 | 254 | 0.9 | 1.7 | 0.00 | 0.00 | 0.00 | 64 | 1038.4 |
| 20260506111213 | 63 | 222 | 3.5 | 3.5 | 0.00 | 0.00 | 0.00 | 64 | 1038.4 |
| 20260506110709 | 62 | 233 | 2.6 | 2.6 | 0.00 | 0.00 | 0.00 | 63 | 1038.7 |
| 20260506110207 | 62 | 249 | 1.7 | 2.6 | 0.00 | 0.00 | 0.00 | 63 | 1038.5 |
| 20260506105703 | 63 | 249 | 0.9 | 1.7 | 0.00 | 0.00 | 0.00 | 63 | 1038.4 |
| 20260506105200 | 63 | 256 | 1.7 | 6.1 | 0.00 | 0.00 | 0.00 | 61 | 1038.3 |
| 20260506104658 | 63 | 260 | 0.0 | 1.7 | 0.00 | 0.00 | 0.00 | 61 | 1038.2 |
| 20260506104155 | 62 | 258 | 0.9 | 0.9 | 0.00 | 0.00 | 0.00 | 61 | 1038.1 |
| 20260506103652 | 63 | 265 | 0.9 | 1.7 | 0.00 | 0.00 | 0.00 | 61 | 1037.9 |
| 20260506103149 | 63 | 260 | 0.0 | 1.7 | 0.00 | 0.00 | 0.00 | 60 | 1038.0 |
| 20260506102647 | 63 | 259 | 0.0 | 1.7 | 0.00 | 0.00 | 0.00 | 60 | 1038.0 |
| 20260506102144 | 63 | 252 | 0.0 | 0.9 | 0.00 | 0.00 | 0.00 | 59 | 1038.1 |
| 20260506101641 | 63 | 257 | 0.9 | 1.7 | 0.00 | 0.00 | 0.00 | 59 | 1037.9 |
| 20260506101138 | 63 | 246 | 0.0 | 0.9 | 0.00 | 0.00 | 0.00 | 58 | 1038.1 |
| 20260506100637 | 63 | 255 | 0.9 | 0.9 | 0.00 | 0.00 | 0.00 | 57 | 1038.0 |
| 20260506100134 | 63 | 256 | 0.9 | 1.7 | 0.00 | 0.00 | 0.00 | 57 | 1038.1 |
| 20260506095633 | 63 | 242 | 1.7 | 2.6 | 0.00 | 0.00 | 0.00 | 57 | 1038.0 |
| 20260506095129 | 63 | 242 | 0.9 | 2.6 | 0.00 | 0.00 | 0.00 | 57 | 1038.2 |
| 20260506094626 | 63 | 250 | 1.7 | 1.7 | 0.00 | 0.00 | 0.00 | 56 | 1038.3 |
| 20260506094124 | 63 | 249 | 0.0 | 0.0 | 0.00 | 0.00 | 0.00 | 56 | 1038.2 |
| 20260506093623 | 63 | 263 | 0.0 | 0.0 | 0.00 | 0.00 | 0.00 | 56 | 1038.1 |
| 20260506093119 | 63 | 260 | 0.0 | 0.0 | 0.00 | 0.00 | 0.00 | 55 | 1037.9 |
| 20260506092617 | 63 | 262 | 0.0 | 0.0 | 0.00 | 0.00 | 0.00 | 55 | 1038.1 |
| 20260506092114 | 63 | 260 | 0.0 | 0.0 | 0.00 | 0.00 | 0.00 | 55 | 1037.9 |
| 20260506091612 | 62 | 264 | 0.0 | 0.0 | 0.00 | 0.00 | 0.00 | 56 | 1038.1 |
| 20260506091109 | 63 | 268 | 0.0 | 0.0 | 0.00 | 0.00 | 0.00 | 56 | 1038.0 |
| 20260506090607 | 62 | 264 | 0.0 | 0.0 | 0.00 | 0.00 | 0.00 | 57 | 1038.2 |
| 20260506085600 | 61 | 283 | 0.0 | 0.0 | 0.00 | 0.00 | 0.00 | 60 | 1038.4 |
| 20260506085056 | 61 | 282 | 0.0 | 0.0 | 0.00 | 0.00 | 0.00 | 59 | 1038.2 |
| 20260506084553 | 62 | 273 | 0.0 | 0.0 | 0.00 | 0.00 | 0.00 | 58 | 1038.3 |
| 20260506084049 | 62 | 262 | 0.0 | 0.0 | 0.00 | 0.00 | 0.00 | 56 | 1038.4 |
| 20260506083547 | 62 | 258 | 0.0 | 0.0 | 0.00 | 0.00 | 0.00 | 56 | 1038.6 |
| 20260506083044 | 62 | 263 | 0.0 | 0.0 | 0.00 | 0.00 | 0.00 | 56 | 1038.5 |
| 20260506082541 | 62 | 263 | 0.0 | 0.0 | 0.00 | 0.00 | 0.00 | 55 | 1038.3 |
| 20260506082036 | 63 | 258 | 0.0 | 0.0 | 0.00 | 0.00 | 0.00 | 55 | 1038.5 |
| 20260506081535 | 63 | 249 | 0.0 | 0.0 | 0.00 | 0.00 | 0.00 | 54 | 1038.3 |
| 20260506081032 | 63 | 265 | 0.0 | 0.0 | 0.00 | 0.00 | 0.00 | 53 | 1038.3 |
| 20260506080530 | 64 | 254 | 0.0 | 0.0 | 0.00 | 0.00 | 0.00 | 53 | 1038.1 |
| 20260506073513 | 64 | 262 | 0.0 | 0.0 | 0.00 | 0.00 | 0.00 | 53 | 1038.4 |
| 20260506073010 | 64 | 262 | 0.0 | 0.0 | 0.00 | 0.00 | 0.00 | 53 | 1038.5 |
| 20260506072507 | 64 | 260 | 0.0 | 0.0 | 0.00 | 0.00 | 0.00 | 53 | 1038.5 |
| 20260506072005 | 64 | 258 | 0.0 | 0.0 | 0.00 | 0.00 | 0.00 | 52 | 1038.7 |
| 20260506071503 | 64 | 259 | 0.0 | 0.0 | 0.00 | 0.00 | 0.00 | 52 | 1038.8 |
| 20260506070959 | 63 | 262 | 0.0 | 0.0 | 0.00 | 0.00 | 0.00 | 54 | 1038.8 |
| 20260506070456 | 62 | 264 | 0.0 | 0.0 | 0.00 | 0.00 | 0.00 | 55 | 1038.6 |
| 20260506062434 | 62 | 269 | 0.0 | 0.0 | 0.00 | 0.00 | 0.00 | 58 | 1038.8 |
| 20260506061930 | 61 | 271 | 0.0 | 0.0 | 0.00 | 0.00 | 0.00 | 60 | 1038.7 |
| 20260506061426 | 61 | 271 | 0.0 | 0.0 | 0.00 | 0.00 | 0.00 | 61 | 1038.9 |
| 20260506060925 | 62 | 264 | 0.0 | 0.0 | 0.00 | 0.00 | 0.00 | 60 | 1039.0 |
| 20260506060423 | 62 | 257 | 0.0 | 0.9 | 0.00 | 0.00 | 0.00 | 59 | 1039.1 |
| 20260506051354 | 62 | 268 | 0.0 | 0.0 | 0.00 | 0.00 | 0.00 | 61 | 1039.3 |
| 20260506050851 | 62 | 268 | 0.0 | 0.0 | 0.00 | 0.00 | 0.00 | 62 | 1039.4 |
| 20260506050349 | 62 | 266 | 0.0 | 0.0 | 0.00 | 0.00 | 0.00 | 62 | 1039.5 |
| 20260506044839 | 63 | 264 | 0.0 | 0.0 | 0.00 | 0.00 | 0.00 | 59 | 1039.3 |
| 20260506044337 | 63 | 263 | 0.0 | 0.0 | 0.00 | 0.00 | 0.00 | 59 | 1039.5 |
| 20260506043834 | 63 | 264 | 0.0 | 0.0 | 0.00 | 0.00 | 0.00 | 59 | 1039.5 |
| 20260506043331 | 63 | 263 | 0.0 | 0.9 | 0.00 | 0.00 | 0.00 | 58 | 1039.6 |
| 20260506042829 | 63 | 274 | 0.0 | 0.0 | 0.00 | 0.00 | 0.00 | 59 | 1039.5 |
| 20260506042328 | 63 | 276 | 0.0 | 0.9 | 0.00 | 0.00 | 0.00 | 60 | 1039.5 |
| 20260506041827 | 63 | 283 | 0.9 | 0.9 | 0.00 | 0.00 | 0.00 | 61 | 1039.5 |
| 20260506041323 | 62 | 290 | 0.9 | 1.7 | 0.00 | 0.00 | 0.00 | 61 | 1039.5 |
| 20260506040820 | 63 | 286 | 0.9 | 1.7 | 0.00 | 0.00 | 0.00 | 61 | 1039.6 |
| 20260506040318 | 63 | 273 | 0.0 | 0.9 | 0.00 | 0.00 | 0.00 | 60 | 1039.7 |
| 20260506035814 | 63 | 280 | 0.0 | 0.9 | 0.00 | 0.03 | 0.03 | 60 | 1039.7 |
| 20260506035311 | 63 | 271 | 0.9 | 0.9 | 0.00 | 0.03 | 0.03 | 61 | 1039.6 |
| 20260506034809 | 63 | 256 | 0.9 | 0.9 | 0.00 | 0.03 | 0.03 | 61 | 1039.6 |
| 20260506034306 | 63 | 264 | 0.0 | 0.0 | 0.00 | 0.03 | 0.03 | 59 | 1039.6 |
| 20260506033802 | 64 | 269 | 0.0 | 0.0 | 0.00 | 0.03 | 0.03 | 58 | 1039.5 |
| 20260506033259 | 64 | 272 | 0.0 | 0.0 | 0.00 | 0.03 | 0.03 | 57 | 1039.5 |
| 20260506032756 | 64 | 270 | 0.0 | 0.0 | 0.00 | 0.03 | 0.03 | 57 | 1039.6 |
| 20260506032253 | 64 | 272 | 0.0 | 0.9 | 0.00 | 0.03 | 0.03 | 57 | 1039.5 |
| 20260506031750 | 64 | 273 | 0.9 | 1.7 | 0.00 | 0.03 | 0.03 | 57 | 1039.4 |
| 20260506031247 | 64 | 280 | 0.9 | 1.7 | 0.00 | 0.03 | 0.03 | 57 | 1039.5 |
| 20260506030745 | 65 | 271 | 1.7 | 1.7 | 0.00 | 0.03 | 0.03 | 57 | 1039.5 |
| 20260506030243 | 65 | 283 | 1.7 | 1.7 | 0.00 | 0.03 | 0.03 | 55 | 1039.5 |
| 20260506025739 | 66 | 274 | 0.9 | 0.9 | 0.00 | 0.03 | 0.03 | 54 | 1039.4 |
| 20260506025235 | 66 | 271 | 0.9 | 0.9 | 0.00 | 0.03 | 0.03 | 54 | 1039.4 |
| 20260506024732 | 66 | 276 | 0.9 | 0.9 | 0.00 | 0.03 | 0.03 | 54 | 1039.3 |
| 20260506024228 | 67 | 275 | 0.9 | 0.9 | 0.00 | 0.03 | 0.03 | 54 | 1039.5 |
| 20260506023720 | 67 | 267 | 0.0 | 0.0 | 0.00 | 0.03 | 0.03 | 53 | 1039.5 |
| 20260506023217 | 67 | 269 | 0.9 | 0.9 | 0.00 | 0.03 | 0.03 | 52 | 1039.5 |
| 20260506022714 | 68 | 268 | 0.0 | 0.9 | 0.00 | 0.03 | 0.03 | 51 | 1039.5 |
| 20260506022212 | 68 | 263 | 0.9 | 0.9 | 0.00 | 0.03 | 0.03 | 51 | 1039.5 |
| 20260506021709 | 68 | 260 | 0.0 | 0.9 | 0.00 | 0.03 | 0.03 | 51 | 1039.7 |
| 20260506021206 | 69 | 254 | 0.9 | 0.9 | 0.00 | 0.03 | 0.03 | 50 | 1039.5 |
| 20260506020703 | 69 | 245 | 1.7 | 1.7 | 0.00 | 0.03 | 0.03 | 49 | 1039.5 |
| 20260506020201 | 69 | 250 | 1.7 | 2.6 | 0.00 | 0.03 | 0.03 | 49 | 1039.7 |
| 20260506015658 | 69 | 260 | 0.9 | 1.7 | 0.00 | 0.03 | 0.03 | 49 | 1039.5 |
| 20260506015156 | 69 | 260 | 1.7 | 2.6 | 0.00 | 0.03 | 0.03 | 48 | 1039.4 |
| 20260506014653 | 69 | 261 | 0.9 | 2.6 | 0.00 | 0.03 | 0.03 | 48 | 1039.4 |
| 20260506014148 | 69 | 248 | 1.7 | 1.7 | 0.00 | 0.03 | 0.03 | 48 | 1039.3 |
| 20260506013646 | 69 | 262 | 0.9 | 1.7 | 0.00 | 0.03 | 0.03 | 49 | 1039.5 |
| 20260506013143 | 69 | 266 | 0.0 | 1.7 | 0.00 | 0.03 | 0.03 | 49 | 1039.3 |
| 20260506012639 | 69 | 264 | 0.9 | 0.9 | 0.00 | 0.03 | 0.03 | 49 | 1039.2 |
| 20260506012135 | 70 | 264 | 0.9 | 0.9 | 0.00 | 0.03 | 0.03 | 48 | 1039.1 |
| 20260506011628 | 71 | 243 | 1.7 | 1.7 | 0.00 | 0.03 | 0.03 | 46 | 1038.9 |
| 20260506011124 | 71 | 244 | 0.9 | 1.7 | 0.00 | 0.03 | 0.03 | 46 | 1038.9 |
| 20260506010623 | 70 | 239 | 0.0 | 1.7 | 0.00 | 0.03 | 0.03 | 47 | 1038.9 |
| 20260506010119 | 71 | 254 | 0.0 | 0.9 | 0.00 | 0.03 | 0.03 | 46 | 1038.7 |
| 20260506005616 | 71 | 260 | 0.0 | 0.9 | 0.00 | 0.03 | 0.03 | 45 | 1038.8 |
| 20260506005113 | 71 | 254 | 0.9 | 0.9 | 0.00 | 0.03 | 0.03 | 44 | 1038.7 |
| 20260506004610 | 72 | 257 | 0.0 | 1.7 | 0.00 | 0.03 | 0.03 | 44 | 1038.7 |
| 20260506004106 | 72 | 225 | 3.5 | 6.1 | 0.00 | 0.03 | 0.03 | 43 | 1038.9 |
| 20260506003602 | 72 | 245 | 0.9 | 2.6 | 0.00 | 0.03 | 0.03 | 43 | 1038.7 |
| 20260506003059 | 73 | 256 | 0.0 | 1.7 | 0.00 | 0.03 | 0.03 | 43 | 1038.7 |
| 20260506002554 | 73 | 228 | 1.7 | 2.6 | 0.00 | 0.03 | 0.03 | 43 | 1038.7 |
| 20260506002051 | 73 | 255 | 0.9 | 1.7 | 0.00 | 0.03 | 0.03 | 43 | 1038.6 |
| 20260506001547 | 73 | 259 | 0.9 | 1.7 | 0.00 | 0.03 | 0.03 | 43 | 1038.6 |
| 20260506001045 | 73 | 249 | 1.7 | 1.7 | 0.00 | 0.03 | 0.03 | 43 | 1038.6 |
| 20260506000542 | 73 | 258 | 0.9 | 2.6 | 0.00 | 0.03 | 0.03 | 43 | 1038.6 |
| 20260506000039 | 73 | 247 | 0.9 | 1.7 | 0.00 | 0.03 | 0.03 | 44 | 1038.5 |
| 20260505235537 | 73 | 245 | 0.9 | 1.7 | 0.00 | 0.03 | 0.03 | 44 | 1038.4 |
| 20260505235034 | 73 | 241 | 0.9 | 2.6 | 0.00 | 0.03 | 0.03 | 43 | 1038.3 |
| 20260505234531 | 73 | 249 | 1.7 | 5.2 | 0.00 | 0.03 | 0.03 | 42 | 1038.3 |
| 20260505234027 | 73 | 224 | 2.6 | 2.6 | 0.00 | 0.03 | 0.03 | 43 | 1038.5 |
| 20260505233525 | 73 | 258 | 1.7 | 5.2 | 0.00 | 0.03 | 0.03 | 43 | 1038.1 |
| 20260505233022 | 73 | 258 | 1.7 | 5.2 | 0.00 | 0.03 | 0.03 | 43 | 1038.3 |
| 20260505232520 | 73 | 209 | 1.7 | 2.6 | 0.00 | 0.03 | 0.03 | 44 | 1038.3 |
| 20260505232018 | 73 | 241 | 1.7 | 2.6 | 0.00 | 0.03 | 0.03 | 44 | 1038.3 |